Regional Weather Roundup
Issued by NWS San Diego, CA

Home | Current Version | Previous Version | Text Only | Print | Product List | Glossary On
Versions: 1 2 3 4 5 6 7 8 9 10 11 12 13 14 15 16 17 18 19 20 21 22 23 24 25 26 27 28 29 30 31 32 33 34 35 36 37 38 39 40 41 42 43 44 45 46 47 48 49
000
ASUS46 KSGX 121011
RWRSGX

SAN DIEGO HOURLY WEATHER ROUNDUP
NATIONAL WEATHER SERVICE SAN DIEGO CA
200 AM PST FRI FEB 12 2016

NOTE: "FAIR" INDICATES FEW OR NO CLOUDS BELOW 12,000 FEET WITH NO
SIGNIFICANT WEATHER AND/OR OBSTRUCTIONS TO VISIBILITY.

CAZ042-043-060-061-PZZ750-775-121100-

GREATER SAN DIEGO AREA

CITY           SKY/WX    TMP DP  RH WIND       PRES   REMARKS
LINDBERGH FLD  CLEAR     59  37  44 CALM      30.10F
POINT LOMA       N/A     65  34  31 N5          N/A
NATIONAL CITY    N/A     55  41  58 CALM      30.10F
CHULA VISTA      N/A     53  40  61 CALM      30.02F
IMPERIAL BEACH CLEAR     58  36  43 NE6       30.10F
BROWN FIELD    CLEAR     56  33  42 SE6       30.10F
MIRAMAR MCAS   CLEAR     58  36  43 NE7       30.10F
MONTGOMERY FLD CLEAR     55  38  52 NE3       30.10F

$$

NORTH SAN DIEGO COUNTY

CITY           SKY/WX    TMP DP  RH WIND       PRES   REMARKS
CAMP PENDLETON CLEAR     45  36  70 CALM      30.10F
OCEANSIDE AP   CLEAR     48  35  60 CALM      30.10S
OCEANSIDE HBR    N/A     55  38  52 NE2       30.12S
VISTA            N/A     53  35  51 CALM      30.09S
CARLSBAD       CLEAR     58  35  42 CALM      30.09F
DEL MAR          N/A     61  35  37 CALM      30.12F
FALLBROOK        N/A     62  34  34 CALM      30.10F
ESCONDIDO        N/A     53  36  52 CALM      30.11F
SAN MARCOS       N/A     64  34  33 CALM      30.08F
POWAY            N/A     48  37  65 CALM      30.12F

$$

EAST SAN DIEGO COUNTY

CITY           SKY/WX    TMP DP  RH WIND       PRES   REMARKS
RAMONA         CLEAR     41  35  79 E3        30.14F
SANTEE LAKES     N/A     49  40  70 CALM      30.10F
LA MESA          N/A     62  32  32 NE2       30.02F
JAMUL            N/A     54  33  44 CALM      30.11F
DESCANSO N       N/A     47  21  35 E5        30.04F
MT. LAGUNA OBS   N/A     57 -10   6 CALM      29.84F
CAMPO            N/A     36  19  50 NE8       30.16F WCI  30

$$

ORANGE COUNTY AND THE LOS ANGELES BASIN

CITY           SKY/WX    TMP DP  RH WIND       PRES   REMARKS
JOHN WAYNE AP  CLEAR     56  38  50 CALM      30.10F
LAGUNA BEACH     N/A     48  35  61 NW3       30.05F
LAKE FOREST FR   N/A     62  26  25 CALM      29.97F
HUNTINGTON BCH   N/A     49  47  93 CALM      30.12S
LOS ALAMITOS   FAIR      53  43  69 CALM      30.09F
FULLERTON      CLEAR     56  38  50 E3        30.09F
LONG BEACH     CLEAR     55  41  59 CALM      30.10S
L.A. AP        PTCLDY    60  41  49 CALM      30.10F
L.A. DOWNTOWN  CLEAR     58  41  53 CALM      30.10S

$$

THE INLAND EMPIRE

CITY           SKY/WX    TMP DP  RH WIND       PRES   REMARKS
CORONA         CLEAR     45  37  73 CALM      30.13F
CHINO          CLEAR     53  38  56 CALM      30.14S
ONTARIO        CLEAR     58  37  45 NE3       30.12F
RIVERSIDE AP   CLEAR     57  32  38 NE7       30.13F
MORENO VALLEY    N/A     60  38  43 CALM      28.25S
MARCH ARB      CLEAR     46  31  56 CALM      30.15S
HORSETHIEF CYN   N/A     60  27  28 CALM      30.15S
PERRIS           N/A     53  35  50 CALM      30.19S
HEMET EAST       N/A     59  17  19 CALM      30.03F
FRENCH VALLEY  FAIR      50  36  57 N5        30.15F
TEMECULA         N/A     52  39  61 CALM      30.12S

$$

SAN BERNARDINO AND RIVERSIDE COUNTY MOUNTAINS

CITY           SKY/WX    TMP DP  RH WIND       PRES   REMARKS
BIG BEAR AP    CLEAR     25  19  80 CALM      30.40F
ANGELUS OAKS     N/A     45  20  36 CALM      30.14S
PINE COVE        N/A     57  -4   8 CALM      30.12S

$$

SOUTHERN DESERT INCLUDING THE COACHELLA VALLEY

CITY           SKY/WX    TMP DP  RH WIND       PRES   REMARKS
PALM SPRINGS   CLEAR     61  27  27 NW7       30.13F
THOUSAND PALMS   N/A     57  27  32 W3        30.10F
PALM DESERT      N/A     56  34  42 CALM      26.81S
THERMAL        CLEAR     46  35  65 CALM      30.08F
BLYTHE         CLEAR     52  24  33 CALM      30.12S
IMPERIAL AP    CLEAR     54  27  35 W6        30.09S
EL CENTRO NAS  CLEAR     55  21  26 W8        30.11S
YUMA AZ        CLEAR     56  32  40 CALM      30.09S

$$

UPPER DESERT

CITY           SKY/WX    TMP DP  RH WIND       PRES   REMARKS
VICTORVILLE AP CLEAR     43  25  49 CALM      30.23S
HESPERIA         N/A     47  27  46 CALM      30.34S
APPLE VALLEY     N/A     38  27  63 CALM      30.26R
PALMDALE       CLEAR     41  28  60 S7        30.23S
LANCASTER      CLEAR     35  27  72 CALM      30.23F
EDWARDS AFB    CLEAR     38  26  61 SW3       30.21S
DAGGETT        CLEAR     46  23  40 W9        30.21S
29 PALMS N     CLEAR     48  21  34 NW6       30.27S
NEEDLES        CLEAR     53  25  33 W6        30.16S

$$

REGIONAL REPORTS

CITY           SKY/WX    TMP DP  RH WIND       PRES   REMARKS
SANTA BARBARA  PTCLDY    49  46  90 CALM      30.09F
SANDBERG       CLEAR     60  19  20 NE7       30.28F
LAS VEGAS NV   CLEAR     50  22  33 SW5       30.20R
PHOENIX AZ     CLEAR     59  35  40 CALM      30.12S
TIJUANA        CLEAR     61  27  27 E6        30.12F
ENSENADA NW      N/A     65  32  29 CALM      30.05F

$$

OFFSHORE ISLANDS

CITY           SKY/WX    TMP DP  RH WIND       PRES   REMARKS
CATALINA ARPT  CLEAR     71  19  14 N3        30.15F
SAN NICOLAS IS CLEAR    N/A N/A N/A W3        30.10F

$$

MARINE AND OFFSHORE BUOY REPORTS

STATION/POSITION SKY/WX   TEMP    WIND        PRES    SWELL
                          AIR SEA DIR/SP/G            HT/PER/DIR
                          (F)     (DEG/KT/KT) (MB)    (FT/S/D)
TANNER BANKS               54 60  340/  8/ 12 1019.4F   8/320/21
S CLEMENTE BASIN           61 61  290/  6/  8 1018.9F   7/290/21
SAN NICOLAS IS.               58                N/A     8/290/20
SO. S. ROSA ISLA           56 59              1018.4F
W. S. BARBARA CH           54 58  320/ 16/ 19 1018.6F   8/310/19
M. S. BARBARA CH           58 59  210/  2/  4 1019.6F
S. MONICA BASIN            60 60  320/  6/  8 1019.3F   3/270/12
S PEDRO CHANNEL               61                N/A     3/260/20
DANA POINT                    60                N/A     2/250/11
OCEANSIDE OFFSHR              61                N/A     3/260/11
TORREY PINES OTR              61                N/A     3/270/12
LA JOLLA 1                 62 61  110/  1/  1 1019.3F
SAN DIEGO BAY                 61              1019.9F
POINT LOMA SOUTH              61                N/A     5/270/13

$$




USA.gov is the U.S. government's official web portal to all federal, state and local government web resources and services.